Theta_e
348 348 349 348 348 348 348 350 352 351 350 351 352 350 351 354 351 347 352 353 352 351 347 346 345 344 344 342 344 341 341 345 344 344 342 339 337 337 336 337 340 341 341
347 347 350 349 349 347 347 350 351 346 346 350 353 352 350 353 349 353 351 352 350 352 351 349 347 347 345 346 345 340 343 343 346 345 344 343 340 338 337 336 336 338 340
343 342 351 351 350 350 349 351 350 349 348 348 347 350 353 352 354 355 355 352 352 352 353 353 350 347 347 344 344 340 340 348 346 346 345 344 343 340 338 336 336 336 339
340 350 351 351 350 352 349 350 350 349 348 347 348 349 350 350 347 350 350 352 354 353 354 354 352 352 349 343 342 342 342 347 347 346 347 345 344 343 341 337 335 335 336
340 344 352 351 351 351 351 349 348 349 351 349 349 347 348 349 348 350 350 351 350 350 350 352 356 355 352 344 343 344 343 343 342 345 346 346 344 344 343 340 336 334 335
350 352 352 351 351 351 351 352 353 352 348 351 353 354 351 356 354 352 350 349 352 355 354 353 352 351 346 346 343 345 344 341 341 345 345 346 346 345 344 343 341 336 333
352 353 352 352 352 351 350 349 349 346 353 354 354 352 351 355 354 339 349 353 353 353 353 355 352 344 351 353 349 347 344 342 343 346 343 344 346 346 346 345 344 341 335
349 353 353 352 351 352 352 353 351 351 349 352 357 355 355 355 355 353 353 354 337 347 350 354 353 353 348 348 352 350 346 343 343 345 346 345 346 346 345 345 345 343 339
346 348 351 354 352 352 352 353 354 354 354 354 355 357 357 356 356 357 354 357 354 354 352 352 350 354 351 349 343 349 352 349 344 343 344 345 346 346 346 345 344 343 342
350 346 350 351 349 348 351 354 354 354 353 355 356 356 358 358 358 356 356 353 356 356 359 358 352 340 353 350 351 349 346 351 347 345 346 346 347 348 346 345 344 343 343
353 353 353 355 355 355 353 352 348 351 353 358 357 356 358 360 360 357 355 356 356 354 358 358 356 350 342 353 351 350 350 346 347 346 346 347 348 348 349 348 346 344 343
354 354 354 353 354 355 356 351 348 346 346 349 354 358 357 358 360 357 356 356 358 356 352 355 357 357 357 353 351 351 351 351 352 348 346 345 346 346 347 349 348 347 345
354 354 353 353 353 354 353 355 352 355 357 357 357 358 358 358 357 356 356 354 353 354 357 356 354 351 356 355 346 353 353 350 350 349 346 344 344 345 346 347 348 346 346
354 352 353 353 356 357 358 359 359 359 361 360 359 359 358 359 359 356 353 355 353 353 354 352 347 352 353 354 352 339 333 350 351 352 346 344 344 344 345 347 348 348 345
355 356 356 357 357 358 359 360 360 360 361 361 357 357 360 360 359 359 357 356 353 353 349 343 350 354 354 354 352 350 342 352 353 352 349 345 342 342 344 345 347 348 348
356 355 356 358 360 362 362 361 361 361 360 359 358 358 359 359 358 357 356 355 355 353 353 346 351 355 354 353 352 353 347 341 351 349 347 345 343 342 341 341 344 347 348
358 360 358 356 359 360 361 361 360 360 357 355 356 355 350 346 345 343 347 352 355 355 354 353 353 349 344 354 356 353 354 353 331 349 349 347 345 344 344 341 339 339 343
362 362 365 363 361 361 357 355 354 346 329 323 323 324 322 322 325 329 331 335 338 341 346 348 349 350 349 347 348 351 351 352 353 353 352 350 348 348 344 342 341 341 341
363 358 355 353 354 347 331 324 322 323 324 327 323 320 320 321 324 330 337 336 335 339 344 348 348 347 345 344 349 352 349 353 351 349 346 346 347 345 346 347 346 347 346
351 352 344 327 322 322 320 319 320 324 322 320 321 320 322 327 335 336 336 336 336 336 337 338 340 344 344 344 345 347 349 349 348 347 344 343 342 343 344 344 342 338 339
336 326 320 320 320 317 318 319 321 320 320 321 320 322 330 334 335 335 337 336 337 338 337 338 339 340 339 340 343 342 345 345 343 344 344 342 341 342 342 338 340 343 344
320 318 317 319 319 316 318 321 321 319 321 323 330 333 335 330 333 334 335 337 339 339 339 340 338 338 338 338 336 341 345 344 345 345 344 343 341 341 338 341 342 344 343
329 319 317 316 316 318 319 320 320 319 322 329 327 326 330 330 331 331 331 332 334 334 334 335 337 337 339 339 340 339 341 342 343 344 341 341 340 338 340 340 340 340 341
319 319 316 316 317 319 319 318 319 320 327 326 326 327 327 326 327 326 327 328 330 331 331 331 332 334 337 339 339 340 339 338 339 340 344 340 337 339 339 339 339 338 335
320 316 316 317 320 319 319 319 318 321 324 324 325 324 324 325 324 325 325 326 328 329 330 332 334 336 339 340 340 339 339 340 341 341 342 339 337 337 337 336 336 337 335
316 317 321 321 325 326 323 320 318 320 322 323 323 323 323 323 324 324 325 325 328 329 332 335 336 338 340 340 339 339 337 339 341 342 341 338 337 335 333 333 335 336 335
Wind_Speed
6 9 8 9 7 4 7 11 6 11 9 13 8 9 8 6 11 12 3 7 11 12 10 9 13 17 17 16 12 11 16 17 15 16 15 16 16 17 16 16 16 16 14
7 8 7 6 5 6 7 9 9 11 7 10 15 13 12 11 8 7 7 7 13 11 11 11 12 14 16 18 17 15 14 18 17 17 17 16 17 17 17 17 17 17 15
8 10 8 5 5 5 9 7 9 9 12 13 12 13 12 11 15 11 9 13 14 10 11 11 10 13 12 14 20 20 16 16 19 19 19 18 17 17 18 18 17 17 16
12 11 5 6 5 6 7 8 10 11 10 11 10 10 14 9 10 12 16 15 10 12 13 12 11 10 11 12 13 18 19 17 19 21 21 21 18 17 17 17 17 17 16
11 12 9 7 9 7 8 8 10 9 7 10 10 11 13 14 9 9 9 14 17 16 18 13 15 14 14 13 14 12 15 18 19 20 22 22 20 18 18 17 17 17 17
12 12 7 6 9 8 9 12 10 13 14 9 14 15 16 18 17 11 12 19 14 15 12 15 15 12 8 7 13 14 13 15 19 20 21 21 21 20 20 18 17 17 17
13 12 11 10 11 9 7 15 18 13 11 16 14 16 18 17 8 11 15 17 13 10 14 14 16 13 9 14 12 13 15 14 16 18 19 20 21 20 21 20 19 18 18
18 16 15 10 11 13 8 12 18 16 11 6 14 15 10 18 12 14 15 17 17 17 15 22 17 14 12 17 16 15 13 15 17 18 20 20 21 21 21 21 20 19 19
17 18 17 16 13 16 15 13 14 15 17 12 10 17 18 11 22 19 19 22 17 12 10 25 18 19 22 18 20 16 17 15 16 18 20 22 22 22 22 22 21 20 20
13 13 16 17 19 18 17 16 16 15 17 19 13 12 19 22 23 21 20 19 20 22 26 22 8 20 30 32 20 16 16 13 15 18 18 19 20 21 22 23 23 22 20
16 14 13 13 14 15 15 15 18 21 20 18 19 19 19 20 17 22 33 28 24 21 23 23 29 23 26 43 25 16 15 19 18 17 18 20 20 19 21 22 23 24 22
16 16 13 14 15 16 16 18 19 18 20 21 21 22 25 23 24 25 27 30 28 33 27 25 22 26 26 33 23 11 17 16 17 19 18 18 20 21 21 22 23 24 24
16 17 17 16 14 14 13 14 16 19 19 23 24 25 25 27 28 28 28 32 34 31 30 28 28 32 28 16 21 16 22 28 26 22 22 21 20 22 22 22 23 24 25
14 12 14 12 11 13 16 17 17 17 17 21 24 26 29 30 30 27 27 31 37 34 34 34 30 23 26 24 18 7 20 33 31 26 24 26 24 25 25 23 25 25 25
19 13 10 10 12 13 16 18 20 21 23 24 26 27 27 29 29 30 30 26 25 30 35 39 29 25 26 27 27 20 23 29 28 28 25 27 26 27 26 26 26 28 28
14 17 16 14 12 12 14 20 20 21 23 23 25 26 28 30 30 31 30 29 27 30 37 36 34 29 31 36 29 20 25 21 31 32 32 28 24 27 29 27 28 29 31
18 16 20 20 17 19 20 21 24 25 27 26 27 29 31 32 33 33 32 29 27 27 32 36 35 34 31 34 26 26 22 26 20 35 29 29 27 27 29 28 30 31 33
10 11 15 16 18 17 19 19 18 21 22 25 26 27 28 31 32 32 30 29 30 31 31 33 32 32 38 43 37 34 29 19 30 28 25 24 23 25 30 33 35 36 38
15 15 15 14 12 13 13 17 19 21 22 25 27 29 31 30 32 32 29 30 31 32 32 32 34 34 40 40 35 31 32 32 34 34 29 28 28 30 34 34 33 37 39
5 9 13 10 11 10 15 18 21 23 26 27 28 29 29 26 25 27 28 30 32 32 32 32 33 30 32 36 38 37 37 36 34 29 30 30 30 30 32 32 33 36 36
6 14 12 12 13 11 17 19 22 24 25 26 26 24 22 25 24 24 24 25 28 30 31 33 34 31 30 31 33 33 37 35 31 31 35 30 32 29 29 31 30 30 28
5 6 10 9 9 17 17 19 22 24 24 24 23 23 24 23 21 25 27 28 28 31 33 33 36 37 39 35 35 34 30 26 29 35 32 32 31 26 25 24 22 22 22
12 9 13 15 17 14 14 16 18 20 18 17 24 24 23 23 23 29 32 35 35 35 33 34 39 40 39 37 35 33 31 28 28 28 25 24 24 20 18 16 16 15 16
6 12 13 12 11 11 13 16 18 17 16 19 21 24 23 25 26 33 38 37 34 32 32 32 33 35 34 33 32 29 32 32 25 23 26 19 19 16 13 12 9 7 7
12 9 8 8 8 11 15 21 21 17 18 18 19 22 23 25 28 31 33 32 33 33 31 29 25 24 28 29 28 28 29 24 21 22 23 20 18 16 12 9 6 5 4
3 4 6 9 10 14 17 19 19 18 19 20 23 23 25 26 28 28 28 30 32 33 33 26 19 19 19 21 22 24 23 24 26 22 26 22 25 23 12 11 7 6 8
Wind_Direction
256 240 245 248 248 252 289 281 288 310 320 303 306 26 354 316 283 352 322 280 307 296 292 277 269 254 246 243 238 270 261 249 250 250 248 245 244 245 244 246 244 248 248
230 244 261 299 309 302 293 274 299 306 320 325 304 322 342 289 322 324 349 291 304 299 296 299 275 273 258 243 241 257 271 246 244 249 247 245 247 245 244 244 247 249 251
231 240 212 234 246 266 290 323 307 313 316 327 317 311 299 313 314 310 293 294 279 298 292 290 290 282 278 254 245 249 260 255 245 246 247 243 242 246 244 245 245 247 249
234 237 208 237 302 257 280 301 303 303 305 307 310 307 321 316 291 285 277 262 284 281 272 275 281 277 286 264 244 244 247 247 251 250 245 242 240 243 245 244 245 245 245
256 223 216 248 277 283 292 292 295 294 297 310 304 324 313 304 290 283 292 281 291 275 279 276 279 275 280 258 236 239 243 251 246 250 242 237 238 242 244 245 245 243 244
249 240 239 242 267 264 277 281 285 278 308 324 321 311 296 314 277 271 270 282 269 254 292 276 279 281 271 262 240 247 256 252 241 240 238 236 238 241 244 245 245 245 243
252 258 242 240 259 281 278 279 289 286 303 304 309 306 322 329 296 359 242 250 298 266 281 263 292 288 287 285 270 252 250 253 239 234 236 237 238 241 243 244 247 247 246
229 229 254 235 241 255 259 284 298 308 292 291 309 309 316 319 333 327 324 289 340 243 262 261 271 280 286 271 264 265 253 244 242 237 236 238 243 243 244 243 243 246 247
245 234 229 248 244 246 248 258 282 292 292 289 288 294 287 286 309 306 311 304 299 306 247 259 272 278 282 284 269 258 257 250 242 239 239 240 245 247 246 244 241 243 245
267 258 242 245 252 253 252 259 258 272 269 278 274 272 290 298 294 308 300 307 299 301 265 241 258 310 255 263 249 271 257 244 241 240 239 241 243 246 246 244 242 240 242
261 272 262 259 266 269 268 260 255 247 254 260 270 282 286 287 289 289 297 301 300 303 304 272 260 282 216 237 243 251 272 246 239 238 237 240 242 244 244 246 244 240 238
253 266 269 252 261 265 263 266 267 264 265 269 273 274 284 291 290 295 294 298 300 300 295 297 292 300 244 238 220 283 277 271 255 246 241 237 239 243 245 246 245 241 237
250 258 268 250 262 285 271 277 274 269 271 274 281 283 285 286 288 289 289 289 291 294 297 280 280 280 295 260 269 202 268 270 263 259 247 241 242 244 243 246 245 243 238
252 267 280 268 273 285 292 289 290 291 292 286 283 288 291 294 299 300 298 293 291 290 288 280 293 291 292 300 258 12 268 257 257 258 249 247 245 247 243 243 244 243 240
230 247 251 231 252 265 270 273 269 272 272 278 286 289 288 289 291 293 295 294 286 287 287 292 286 286 281 299 307 297 218 247 253 256 252 249 247 248 247 245 244 244 243
250 241 242 231 243 260 264 269 274 276 280 287 289 291 291 293 294 291 293 295 292 281 279 286 290 289 288 288 293 273 266 282 245 258 256 252 246 246 246 246 246 246 247
230 228 242 248 248 252 256 264 271 279 278 281 283 284 284 284 285 284 280 278 284 289 284 287 289 286 276 280 272 278 275 238 265 250 255 256 248 248 247 248 249 249 249
242 236 229 240 251 263 273 279 287 285 286 285 289 295 297 297 295 293 293 292 286 276 281 285 286 280 276 280 282 273 265 257 231 255 259 258 254 255 248 246 247 248 250
210 241 261 260 271 285 288 289 289 299 304 301 302 301 302 298 294 293 294 292 287 280 276 280 282 278 278 278 287 281 269 258 251 259 264 255 248 250 254 251 252 253 255
239 309 287 296 296 287 295 306 303 303 309 312 313 311 308 309 306 298 291 287 288 288 287 282 281 283 287 279 276 272 271 272 267 264 259 257 263 260 259 260 264 265 261
344 284 290 295 290 316 312 312 313 311 313 315 312 312 317 316 320 316 310 299 295 293 291 289 286 285 281 280 283 282 275 270 268 256 256 252 254 261 262 265 266 263 260
295 267 308 313 298 327 320 319 318 320 320 319 325 318 313 312 308 297 295 294 289 289 294 288 283 283 280 278 274 273 274 268 263 255 251 248 250 255 263 266 267 263 263
318 320 325 313 318 324 320 330 333 332 335 342 321 319 326 327 316 309 303 297 291 291 288 286 279 281 283 279 277 272 264 262 260 260 260 239 236 251 255 256 263 265 262
309 312 306 309 320 337 341 345 355 357 1 324 337 334 332 327 318 311 306 308 305 302 301 295 285 280 279 281 278 273 264 263 263 252 249 228 230 231 231 234 241 260 268
303 305 321 332 346 341 2 357 358 7 341 358 342 334 330 329 327 331 329 322 313 306 303 299 285 277 281 278 275 272 264 253 239 242 228 221 215 207 199 224 219 221 213
305 314 344 2 12 4 356 353 350 2 358 3 352 344 338 339 344 343 338 336 331 324 323 318 294 285 287 285 276 267 256 241 230 209 211 230 228 195 170 192 188 199 203